Weather History for Cross City, FL

Change the Weather History Date:

Wednesday, April 24, 2013

  Actual Average Record
Temperature  
Mean Temperature 68 °F 68 °F  
Max Temperature 84 °F 82 °F 93 °F (1999)
Min Temperature 51 °F 55 °F 37 °F (2012)
Degree Days  
Heating Degree Days 0 1  
Month to date heating degree days 31 45  
Since 1 July heating degree days 1124 1300  
Cooling Degree Days 3 4  
Month to date cooling degree days 119 78  
Year to date cooling degree days 237 152  
Growing Degree Days 18 (Base 50)    
Moisture  
Dew Point 56 °F    
Average Humidity 69    
Maximum Humidity 93    
Minimum Humidity 45    
Precipitation  
Precipitation 0.00 in 0.06 in 0.00 in (2014)
Month to date precipitation 2.78 2.63  
Year to date precipitation 7.50 14.15  
Sea Level Pressure  
Sea Level Pressure 30.13 in    
Wind  
Wind Speed 3 mph (SW)    
Max Wind Speed 14 mph    
Max Gust Speed 17 mph    
T = Trace of Precipitation, MM = Missing Value Source: NWS Daily Summary

Daily Weather History Graph

Daily Weather History Graph

Search for Another Location

Airport:

Trip Planner

Search our weather history database for the weather conditions in past years. The results will help you decide how hot, cold, wet, or windy it might be!

Date:

Astronomy

Apr. 24, 2013 Rise Set
Actual Time 6:56 AM EDT 8:05 PM EDT
Civil Twilight 6:31 AM EDT 8:29 PM EDT
Nautical Twilight 6:02 AM EDT 8:59 PM EDT
Astronomical Twilight 5:31 AM EDT 9:30 PM EDT
Moon 7:09 PM EDT (4/24) 5:54 AM EDT (4/24)
Length of Visible Light 13h 58m
Length of Day
13h 08m
Waxing Gibbous, 98% of the Moon is Illuminated
Apr 24
Waxing Gibbous
Apr 25
Full
May 2
Last Quarter
May 9
New
May 18
First Quarter

Hourly Weather History & Observations

Time (EDT) Temp. Heat Index Dew Point Humidity Pressure Visibility Wind Dir Wind Speed Gust Speed Precip Events Conditions
12:53 AM 62.1 °F - 55.0 °F 78% 30.14 in - Calm Calm - N/A   Unknown
1:53 AM 61.0 °F - 55.0 °F 81% 30.12 in - Calm Calm - N/A   Unknown
2:53 AM 59.0 °F - 55.0 °F 87% 30.11 in - Calm Calm - N/A   Unknown
3:53 AM 55.0 °F - 52.0 °F 89% 30.10 in - Calm Calm - N/A   Unknown
4:53 AM 54.0 °F - 51.1 °F 90% 30.10 in - Calm Calm - N/A   Unknown
5:53 AM 52.0 °F - 48.9 °F 89% 30.11 in - Calm Calm - N/A   Unknown
6:53 AM 51.1 °F - 48.0 °F 89% 30.12 in - Calm Calm - N/A   Unknown
7:53 AM 55.0 °F - 52.0 °F 89% 30.14 in - Calm Calm - N/A   Unknown
8:53 AM 64.0 °F - 57.9 °F 80% 30.15 in - ESE 4.6 mph - N/A   Unknown
9:53 AM 70.0 °F - 59.0 °F 68% 30.15 in - ESE 5.8 mph - N/A   Unknown
10:53 AM 75.0 °F - 57.9 °F 55% 30.15 in - SSE 8.1 mph - N/A   Unknown
11:53 AM 78.1 °F - 57.0 °F 48% 30.17 in - Variable 4.6 mph - N/A   Unknown
12:53 PM 81.0 °F 81.0 °F 57.0 °F 44% 30.16 in - Variable 3.5 mph - N/A   Unknown
1:53 PM 81.0 °F 81.3 °F 59.0 °F 47% 30.14 in - Variable 3.5 mph - N/A   Unknown
2:53 PM 81.0 °F 81.6 °F 60.1 °F 49% 30.13 in - NW 4.6 mph - N/A   Unknown
3:53 PM 82.9 °F 82.8 °F 59.0 °F 44% 30.12 in - WSW 11.5 mph - N/A   Unknown
4:53 PM 81.0 °F 81.6 °F 60.1 °F 49% 30.11 in - West 10.4 mph - N/A   Unknown
5:53 PM 79.0 °F - 60.1 °F 52% 30.11 in - WSW 9.2 mph - N/A   Unknown
6:53 PM 78.1 °F - 59.0 °F 52% 30.11 in - WSW 6.9 mph - N/A   Unknown
7:53 PM 73.0 °F - 59.0 °F 61% 30.12 in - West 5.8 mph - N/A   Unknown
8:53 PM 66.9 °F - 59.0 °F 76% 30.13 in - Calm Calm - N/A   Unknown
9:53 PM 64.0 °F - 59.0 °F 84% 30.14 in - Calm Calm - N/A   Unknown
10:53 PM 62.1 °F - 57.9 °F 86% 30.14 in - Calm Calm - N/A   Unknown
11:53 PM 59.0 °F - 55.0 °F 87% 30.14 in - Calm Calm - N/A   Unknown